Weather History for Montevideo, MN

Change the Weather History Date:

Tuesday, January 29, 2013

  Actual Average Record
Temperature  
Mean Temperature 26 °F -  
Max Temperature 30 °F 23 °F 50 °F (1990)
Min Temperature 19 °F 2 °F -30 °F (1951)
Degree Days  
Heating Degree Days 40    
Moisture  
Dew Point 24 °F    
Average Humidity 96    
Maximum Humidity 100    
Minimum Humidity 86    
Precipitation  
Precipitation 0.00 in - - ()
Sea Level Pressure  
Sea Level Pressure 29.71 in    
Wind  
Wind Speed 12 mph (North)    
Max Wind Speed 23 mph    
Max Gust Speed 29 mph    
Visibility 6 miles    
Events Snow    
Averages and records for this station are not official NWS values.
T = Trace of Precipitation, MM = Missing Value Source: NWS Daily Summary

Daily Weather History Graph

Daily Weather History Graph

Search for Another Location

Airport:

Trip Planner

Search our weather history database for the weather conditions in past years. The results will help you decide how hot, cold, wet, or windy it might be!

Date:

Astronomy

Jan. 29, 2013 Rise Set
Actual Time 7:45 AM CST 5:27 PM CST
Civil Twilight 7:14 AM CST 5:58 PM CST
Nautical Twilight 6:38 AM CST 6:33 PM CST
Astronomical Twilight 6:04 AM CST 7:08 PM CST
Moon 8:34 PM CST (1/29) 8:33 AM CST (1/29)
Length of Visible Light 10h 44m
Length of Day
9h 41m
Waning Gibbous, 93% of the Moon is Illuminated
Jan 29
Waning Gibbous
Feb 3
Last Quarter
Feb 10
New
Feb 17
First Quarter
Feb 25
Full

Hourly Weather History & Observations

Time (CST) Temp. Windchill Dew Point Humidity Pressure Visibility Wind Dir Wind Speed Gust Speed Precip Events Conditions
12:14 AM 30.2 °F 25.4 °F 30.2 °F 100% 29.62 in 2.0 mi NE 4.6 mph - N/A   Overcast
12:34 AM 30.2 °F 25.4 °F 30.2 °F 100% 29.62 in 2.5 mi NNE 4.6 mph - N/A   Overcast
12:54 AM 30.2 °F 26.7 °F 30.2 °F 100% 29.63 in 2.5 mi North 3.5 mph - N/A   Overcast
1:14 AM 30.2 °F 23.4 °F 30.2 °F 100% 29.61 in 2.0 mi NNE 6.9 mph - N/A   Overcast
1:34 AM 30.2 °F 25.4 °F 30.2 °F 100% 29.64 in 2.0 mi NNW 4.6 mph - N/A   Overcast
1:54 AM 30.2 °F 21.9 °F 30.2 °F 100% 29.61 in 2.0 mi North 9.2 mph - N/A Snow Snow
2:14 AM 30.2 °F 20.2 °F 30.2 °F 100% 29.62 in 1.5 mi North 12.7 mph - N/A Snow Light Snow
2:34 AM 28.4 °F 19.1 °F 28.4 °F 100% 29.61 in 4.0 mi North 10.4 mph - N/A Snow Light Snow
2:54 AM 28.4 °F 19.7 °F 28.4 °F 100% 29.62 in 5.0 mi North 9.2 mph - N/A Snow Light Snow
3:14 AM 28.4 °F 19.1 °F 28.4 °F 100% 29.63 in 7.0 mi North 10.4 mph - N/A   Overcast
3:34 AM 26.6 °F 17.5 °F 26.6 °F 100% 29.62 in 5.0 mi North 9.2 mph - N/A   Overcast
3:54 AM 26.6 °F 17.5 °F 26.6 °F 100% 29.61 in 5.0 mi North 9.2 mph - N/A   Overcast
4:14 AM 26.6 °F 19.1 °F 26.6 °F 100% 29.63 in 5.0 mi NNW 6.9 mph - N/A   Overcast
4:34 AM 26.6 °F 16.8 °F 26.6 °F 100% 29.62 in 5.0 mi North 10.4 mph - N/A   Overcast
4:54 AM 26.6 °F 17.5 °F 26.6 °F 100% 29.59 in 5.0 mi North 9.2 mph 17.3 mph N/A   Overcast
5:14 AM 26.6 °F 16.8 °F 26.6 °F 100% 29.61 in 5.0 mi North 10.4 mph - N/A   Overcast
5:34 AM 26.6 °F 17.5 °F 26.6 °F 100% 29.61 in 5.0 mi NNW 9.2 mph - N/A   Overcast
5:54 AM 26.6 °F 16.8 °F 26.6 °F 100% 29.61 in 5.0 mi NNW 10.4 mph 16.1 mph N/A   Overcast
6:14 AM 26.6 °F 15.2 °F 26.6 °F 100% 29.60 in 5.0 mi North 13.8 mph - N/A   Overcast
6:34 AM 26.6 °F 15.2 °F 26.6 °F 100% 29.63 in 4.0 mi North 13.8 mph 17.3 mph N/A   Overcast
6:54 AM 26.6 °F 13.8 °F 26.6 °F 100% 29.65 in 5.0 mi North 17.3 mph - N/A   Overcast
7:14 AM 26.6 °F 15.2 °F 26.6 °F 100% 29.66 in 5.0 mi North 13.8 mph 20.7 mph N/A   Overcast
7:34 AM 24.8 °F 14.6 °F 24.8 °F 100% 29.66 in 5.0 mi North 10.4 mph - N/A   Mostly Cloudy
7:54 AM 24.8 °F 11.9 °F 24.8 °F 100% 29.66 in 5.0 mi North 16.1 mph 19.6 mph N/A   Mostly Cloudy
8:14 AM 24.8 °F 14.6 °F 24.8 °F 100% 29.68 in 4.0 mi North 10.4 mph - N/A   Mostly Cloudy
8:34 AM 26.6 °F 15.7 °F 24.8 °F 93% 29.67 in 4.0 mi North 12.7 mph - N/A   Overcast
8:54 AM 24.8 °F 12.4 °F 24.8 °F 100% 29.66 in 5.0 mi North 15.0 mph 20.7 mph N/A   Scattered Clouds
9:14 AM 26.6 °F 14.7 °F 24.8 °F 93% 29.67 in 7.0 mi North 15.0 mph - N/A   Scattered Clouds
9:34 AM 24.8 °F 14.0 °F 24.8 °F 100% 29.69 in 7.0 mi North 11.5 mph - N/A   Mostly Cloudy
9:54 AM 26.6 °F 15.2 °F 24.8 °F 93% 29.71 in 7.0 mi North 13.8 mph 18.4 mph N/A   Mostly Cloudy
10:14 AM 26.6 °F 14.7 °F 24.8 °F 93% 29.70 in 7.0 mi North 15.0 mph - N/A   Mostly Cloudy
10:34 AM 26.6 °F 14.3 °F 24.8 °F 93% 29.71 in 7.0 mi North 16.1 mph - N/A   Scattered Clouds
10:54 AM 26.6 °F 14.7 °F 24.8 °F 93% 29.71 in 7.0 mi North 15.0 mph - N/A   Clear
11:14 AM 26.6 °F 14.7 °F 24.8 °F 93% 29.72 in 5.0 mi North 15.0 mph - N/A   Clear
11:34 AM 26.6 °F 15.2 °F 24.8 °F 93% 29.72 in 7.0 mi North 13.8 mph - N/A   Clear
11:54 AM 26.6 °F 15.7 °F 24.8 °F 93% 29.73 in 7.0 mi North 12.7 mph - N/A   Scattered Clouds
12:14 PM 26.6 °F 15.7 °F 24.8 °F 93% 29.72 in 7.0 mi North 12.7 mph - N/A   Scattered Clouds
12:34 PM 26.6 °F 14.3 °F 23.0 °F 86% 29.72 in 7.0 mi North 16.1 mph - N/A   Scattered Clouds
12:54 PM 24.8 °F 12.9 °F 23.0 °F 93% 29.71 in 5.0 mi North 13.8 mph - N/A   Mostly Cloudy
1:14 PM 24.8 °F 13.4 °F 23.0 °F 93% 29.72 in 5.0 mi North 12.7 mph - N/A   Overcast
1:34 PM 24.8 °F 11.1 °F 23.0 °F 93% 29.72 in 4.0 mi North 18.4 mph 21.9 mph N/A   Overcast
1:54 PM 24.8 °F 12.4 °F 23.0 °F 93% 29.72 in 5.0 mi North 15.0 mph - N/A   Overcast
2:14 PM 24.8 °F 12.9 °F 23.0 °F 93% 29.72 in 5.0 mi North 13.8 mph - N/A   Overcast
2:34 PM 24.8 °F 12.9 °F 23.0 °F 93% 29.73 in 5.0 mi North 13.8 mph 17.3 mph N/A   Overcast
2:54 PM 24.8 °F 11.5 °F 23.0 °F 93% 29.74 in 5.0 mi North 17.3 mph 23.0 mph N/A   Overcast
3:14 PM 24.8 °F 11.1 °F 21.2 °F 86% 29.74 in 7.0 mi North 18.4 mph 24.2 mph N/A   Overcast
3:54 PM 23.0 °F 8.7 °F 21.2 °F 93% 29.74 in 5.0 mi North 18.4 mph - N/A   Overcast
4:14 PM 23.0 °F 8.3 °F 21.2 °F 93% 29.75 in 7.0 mi North 19.6 mph 24.2 mph N/A   Overcast
4:34 PM 21.2 °F 5.2 °F 21.2 °F 100% 29.74 in 4.0 mi North 21.9 mph 26.5 mph N/A   Overcast
4:54 PM 21.2 °F 6.0 °F 21.2 °F 100% 29.74 in 5.0 mi North 19.6 mph 27.6 mph N/A   Overcast
5:14 PM 21.2 °F 6.4 °F 21.2 °F 100% 29.75 in 5.0 mi North 18.4 mph 26.5 mph N/A   Overcast
5:34 PM 21.2 °F 5.6 °F 21.2 °F 100% 29.77 in 4.0 mi NNE 20.7 mph 25.3 mph N/A   Overcast
5:54 PM 21.2 °F 5.6 °F 21.2 °F 100% 29.76 in 5.0 mi North 20.7 mph 28.8 mph N/A   Overcast
6:14 PM 21.2 °F 6.8 °F 21.2 °F 100% 29.78 in 5.0 mi North 17.3 mph 23.0 mph N/A   Overcast
6:34 PM 21.2 °F 7.8 °F 21.2 °F 100% 29.78 in 7.0 mi NNE 15.0 mph - N/A   Overcast
6:54 PM 21.2 °F 7.3 °F 21.2 °F 100% 29.79 in 7.0 mi NNE 16.1 mph 27.6 mph N/A   Overcast
7:14 PM 21.2 °F 5.6 °F 21.2 °F 100% 29.81 in 7.0 mi North 20.7 mph 26.5 mph N/A   Overcast
7:34 PM 21.2 °F 6.0 °F 21.2 °F 100% 29.82 in 7.0 mi North 19.6 mph 23.0 mph N/A   Overcast
7:54 PM 21.2 °F 5.6 °F 21.2 °F 100% 29.82 in 7.0 mi NNE 20.7 mph 25.3 mph N/A   Overcast
8:14 PM 21.2 °F 5.6 °F 21.2 °F 100% 29.83 in 5.0 mi NNE 20.7 mph 27.6 mph N/A   Overcast
8:34 PM 23.0 °F 7.6 °F 19.4 °F 86% 29.83 in 7.0 mi NNE 21.9 mph 28.8 mph N/A   Overcast
8:54 PM 23.0 °F 8.7 °F 21.2 °F 93% 29.83 in 10.0 mi NNE 18.4 mph 23.0 mph N/A   Overcast
9:14 PM 23.0 °F 7.6 °F 21.2 °F 93% 29.82 in 7.0 mi NNE 21.9 mph - N/A   Overcast
9:34 PM 23.0 °F 8.7 °F 19.4 °F 86% 29.83 in 7.0 mi North 18.4 mph 26.5 mph N/A   Overcast
9:54 PM 21.2 °F 6.0 °F 19.4 °F 93% 29.83 in 10.0 mi North 19.6 mph 26.5 mph N/A   Overcast
10:14 PM 21.2 °F 4.9 °F 17.6 °F 86% 29.84 in 10.0 mi NNE 23.0 mph 27.6 mph N/A   Overcast
10:34 PM 21.2 °F 7.8 °F 17.6 °F 86% 29.84 in 10.0 mi North 15.0 mph 27.6 mph N/A   Overcast
10:54 PM 21.2 °F 7.3 °F 17.6 °F 86% 29.84 in 10.0 mi North 16.1 mph 23.0 mph N/A   Overcast
11:14 PM 21.2 °F 6.8 °F 17.6 °F 86% 29.82 in 10.0 mi NNE 17.3 mph 24.2 mph N/A   Overcast
11:34 PM 21.2 °F 6.0 °F 17.6 °F 86% 29.83 in 10.0 mi NNE 19.6 mph - N/A   Overcast
11:54 PM 19.4 °F 5.0 °F 17.6 °F 93% 29.84 in 10.0 mi North 16.1 mph 23.0 mph N/A   Overcast